METEOR 2-7 DEB, 43302

Orbit data source: Space-Track

METEOR 2-7 DEB, 43302 is space debris in LEO originally from a launch on Thu, 14 May 1981 UTC launched from the Plesetsk Missile And Space Complex (PKMTR). Debris objects in space refer to the collection of defunct objects orbiting the Earth. Examples of debris include non-operational satellites, rocket bodies, and fragments generated from explosions, collisions, or faulty payload assembly.

Loading next visibility...
METEOR 2-7 DEB details
Identifier
43302, 1981-043Z
Orbit
LEO
Last TLE update20 hours ago
Origin
Flag of CISKVR (CIS)
ManufacturerUnknown
MissionSpacecraft
Bus & MotorUnknown
MassUnknown
Launch date (UTC)
1981-05-14 (44 years ago)
Launch vehicleUnknown
Launch site
Plesetsk Missile And Space Complex (PKMTR)
Object type
Payload
Rocket body
Debris
Shape & HBRUnknown
Radar Cross SectionSmall (<0.1 m²)

Expand to show TLE details & history

TLE from 20 hours ago
0 METEOR 2-7 DEB
1 43302U 81043Z   24338.51272146  .00017313  00000-0  68967-2 0  9999
2 43302  81.2607 261.9382 0034251 231.5694 128.2411 14.28173166451282
Epoch: 2024-12-03T12:18Z
Definitive object data (Epoch: 2024-12-03T12:18:19.134Z)
Latitude-0.00004°
Longitude4.53731°
Altitude816.037 km
Speed7.437 km/s
True Right ascension17h 27m 45s
True Declination0° 00' 00"
Sunlit
Object was in daylight at TLE epoch
Visualization TLE readout
Latitude16.71763°
Longitude6.32505°
Altitude820.817 km
Speed7.433 km/s
Apparent Right ascension17h 56m 51s
Apparent Declination-9° 44' 28"
Sunlit
Object is in daylight
Visualization observer readout
Local Sidereal Time06:27:48
Azimuth14.953° NNE
Elevation-59.049°
Doppler factor1
Orbital elements
Apogee altitude819.561 km
Perigee altitude770.424 km
Semi-major axis7,173.13 km
Eccentricity0.0034251
Inclination81.2607°
RAAN261.9382°
Arg. of periapsis231.5694°
True anomaly128.54855°
Mean anomaly128.2411°
Eccentric anomaly128.39491°
Mean motion3.57257 °/min
BSTAR0.0068967
Orbital period100.77 mins
Loading maneuver chart data...
Loading historical data...
Loading historical data...
Loading historical data...
Loading historical data...
Loading historical data...
Loading historical data...
Loading historical data...

METEOR 2-7 DEB Visibility forecast

Observer location: undefined°, undefined

Span
Click to sort rows by Start time (UTC) header in descending order
Start Az.
Max El. time (UTC)
Max El. Az.
Max El.
End time (UTC)
End Az.
7 mins2024-12-04 18:41:40.247Z131.811° SE2024-12-04 18:45:40.247Z83.391° E19.086°2024-12-04 18:48:40.247Z46.506° ENE
9 mins2024-12-04 20:22:40.247Z214.104° SW2024-12-04 20:26:40.247Z278.556° WNW36.269°2024-12-04 20:31:40.247Z356.058° N
9 mins2024-12-05 06:55:40.247Z347.241° N2024-12-05 06:59:40.247Z268.52° W44.489°2024-12-05 07:04:40.247Z177.159° S
|